Terug naar catalogus

STARLINK-38241

ActiefCommunicatieSSO
NORAD 100225·PAYLOAD·🇺🇸 United States

Gelanceerd Aug 4, 2026 vanaf Vandenberg Space Force Base

Loading…

Volgende Passages (komende 24 uur)

TLE

VersSource: Space-Track

Epoch: Sep 14, 2026, 22:30 UTC

1 A0225U 26177N   26257.93757575  .00037494  00000-0  68707-3 0  9990
2 A0225  97.2831 308.7479 0001734  85.2789 274.8660 15.49217784  7573

Volg STARLINK-38241 in realtime met AllMySat

Download on the App Store